Home > Time Zones > World Clock > Weather > Oman > Muscat > Past weeks

Flag Weather past 2 weeks in Muscat, Oman

Now
75 °F

Passing clouds.


Feels Like: 77 °F
Forecast: 77 / 84 °F
Wind: 3 mph from South

Location: International Airport

Current Time: Nov 26, 2014 at 3:48:14 AM

Latest Report: Nov 26, 2014 at 2:50 AM


Visibility: N/A

Pressure: 29.89 "Hg

Humidity: 69%

Dew point: 64 °F

Location of MuscatLocation

Historic Weather in Muscat — Graph

°F

Muscat temperature yesterday

Maximum temperature yesterday: 84 °F (at 12:50 PM)
Minimum temperature yesterday: 72 °F (at 3:50 AM)
Average temperature yesterday: 78 °F

Past Weeks' High & Low Weather Summary

 TemperatureHumidityPressure
High86 °F (Nov 20, 10:50 AM)89% (Nov 25, 6:50 AM)30.15 "Hg (Nov 25, 6:50 AM)
Low66 °F (Nov 11, 2:50 AM)30% (Nov 12, 11:50 AM)29.89 "Hg (Nov 23, 1:50 PM)
Average77 °F63%30.01 "Hg
* Reported Nov 11 1:50 AM — Nov 26 1:50 AM, Muscat, Weather by CustomWeather, © 2014

Note: Actual official high and low records may vary slightly from our data, if they occured in-between our weather recording intervals... More about our weather records

Advertising

Muscat weather history for previous 24 hours

 ConditionsComfort  
Time TempWeatherWind HumidityBarometerVisibility
1:50 AM
Nov 26
75 °FClear.2 mph65%29.92 "Hg10 mi
12:50 AM77 °FClear.2 mph61%29.92 "Hg10 mi
11:50 PM
Nov 25
77 °FClear.No wind65%29.95 "Hg10 mi
10:50 PM79 °FClear.6 mph58%29.98 "Hg10 mi
9:50 PM77 °FClear.5 mph74%29.98 "Hg6 mi
8:50 PM77 °FClear.6 mph74%29.98 "Hg6 mi
7:50 PM77 °FClear.2 mph74%29.98 "Hg6 mi
6:50 PM79 °FClear.10 mph70%29.98 "Hg6 mi
5:50 PM79 °FClear.12 mph70%29.95 "Hg6 mi
4:50 PM81 °FClear.15 mph66%29.92 "Hg5 mi
3:50 PM82 °FPassing clouds.14 mph62%29.92 "Hg6 mi
2:50 PM82 °FPassing clouds.17 mph62%29.92 "Hg6 mi
1:50 PM82 °FClear.20 mph55%29.92 "Hg5 mi
12:50 PM84 °FClear.8 mph55%29.95 "Hg5 mi
11:50 AM82 °FClear.6 mph58%29.98 "Hg5 mi
10:50 AM81 °FClear.7 mph70%30.01 "Hg5 mi
9:50 AM81 °FClear.6 mph66%30.01 "Hg5 mi
8:50 AM81 °FClear.No wind74%30.04 "Hg5 mi
7:50 AM75 °FClear.2 mph83%30.01 "Hg5 mi
6:50 AM73 °FClear.5 mph89%29.98 "Hg5 mi
5:50 AM72 °FClear.3 mph83%29.95 "Hg10 mi
4:50 AM72 °FClear.5 mph83%29.95 "Hg10 mi
3:50 AM72 °FClear.3 mph83%29.92 "Hg10 mi
Weather by CustomWeather, © 2014

See weather overviewHow to use our weather pages